Regional Weather Roundup
Issued by NWS

Home | Current Version | Previous Version | Text Only | Print | Product List | Glossary On
Versions: 1 2 3 4 5 6 7 8 9 10 11 12 13 14 15 16 17 18 19 20 21 22 23 24 25 26 27 28 29 30 31 32 33 34 35 36 37 38 39 40 41 42 43 44 45 46 47 48 49 50
517
ASUS43 KOAX 010002
RWRNE

WEATHER ROUNDUP FOR NEBRASKA
NATIONAL WEATHER SERVICE OMAHA NE
700 PM CDT TUE MAY 31 2016

NOTES: SATELLITE DATA IS BEING USED TO AUGMENT CLOUD COVER ABOVE
       12000 FEET.
       "FAIR" INDICATES FEW OR NO CLOUDS BELOW 12,000 FEET WITH NO
       SIGNIFICANT WEATHER AND/OR OBSTRUCTIONS TO VISIBILITY.

  * THESE STATIONS DO NOT REPORT WEATHER SUCH AS RAIN...SNOW OR FOG.

NEZ001>004-019>022-054>056-010100-
NEBRASKA PANHANDLE

CITY           SKY/WX    TMP DP  RH WIND       PRES   REMARKS
SCOTTSBLUFF    SUNNY     71  28  20 NW18G24   30.03R
6HR MIN TEMP:  64; 6HR MAX TEMP:  73;

ALLIANCE       MOSUNNY   67  36  31 N25G32    30.02R
6HR MIN TEMP:  64; 6HR MAX TEMP:  71;

CHADRON        SUNNY     67  37  33 NW22G30   30.04R
6HR MIN TEMP:  67; 6HR MAX TEMP:  73;

SIDNEY         MOSUNNY   65  43  44 W6        30.06S
6HR MIN TEMP:  57; 6HR MAX TEMP:  67;

$$

NEZ057>060-069>072-079>082-010100-
SOUTHWEST NEBRASKA

CITY           SKY/WX    TMP DP  RH WIND       PRES   REMARKS
NORTH PLATTE   SUNNY     69  46  43 W12       29.99S
6HR MIN TEMP:  63; 6HR MAX TEMP:  70;

IMPERIAL       SUNNY     69  46  43 W13G21    30.03R
6HR MIN TEMP:  63; 6HR MAX TEMP:  70;

MCCOOK         SUNNY     71  46  40 CALM      30.00S
6HR MIN TEMP:  68; 6HR MAX TEMP:  73;

$$

NEZ005>010-023>029-035>040-094-010100-
NORTH CENTRAL NEBRASKA

CITY           SKY/WX    TMP DP  RH WIND       PRES   REMARKS
VALENTINE      SUNNY     68  42  38 NW22G31   29.94R
6HR MIN TEMP:  68; 6HR MAX TEMP:  74;

AINSWORTH      MOSUNNY   72  37  27 NW17G26   29.93R
BROKEN BOW     MOSUNNY   71  43  36 W8G17     29.96R
6HR MIN TEMP:  64; 6HR MAX TEMP:  72;

ORD            SUNNY     71  40  32 W7        29.93S
6HR MIN TEMP:  67; 6HR MAX TEMP:  74;

$$

NEZ041-046>049-061>064-073>077-083>087-010100-
SOUTH CENTRAL NEBRASKA

CITY           SKY/WX    TMP DP  RH WIND       PRES   REMARKS
GRAND ISLAND   MOSUNNY   74  43  32 N3        29.96R
6HR MIN TEMP:  69; 6HR MAX TEMP:  75;

HASTINGS       SUNNY     72  45  37 CALM      29.96S
6HR MIN TEMP:  68; 6HR MAX TEMP:  74;

KEARNEY *      SUNNY     72  45  37 W3        29.98R
YORK           MOSUNNY   73  45  35 NW5       29.95R
$$

NEZ011>018-030>034-042>045-010100-
NORTHEAST NEBRASKA

CITY           SKY/WX    TMP DP  RH WIND       PRES   REMARKS
NORFOLK        SUNNY     73  44  35 W6        29.91S
6HR MIN TEMP:  69; 6HR MAX TEMP:  74;

TEKAMAH        SUNNY     78  41  26 NW8       29.90R
6HR MIN TEMP:  70; 6HR MAX TEMP:  79;

$$

NEZ050>053-065>068-078-088>093-010100-
SOUTHEAST NEBRASKA

CITY           SKY/WX    TMP DP  RH WIND       PRES   REMARKS
LINCOLN        MOSUNNY   77  52  41 VRB5      29.92S
6HR MIN TEMP:  71; 6HR MAX TEMP:  78;

OMAHA EPPLEY   CLOUDY    77  53  43 W6        29.91R
6HR MIN TEMP:  72; 6HR MAX TEMP:  78;

FALLS CITY     CLOUDY    76  60  57 NW7       29.88F
6HR MIN TEMP:  75; 6HR MAX TEMP:  80; 6HR PCP: TRACE;

$$

NEZ044-045-051>053-067-010100-
OMAHA AREA

CITY           SKY/WX    TMP DP  RH WIND       PRES   REMARKS
OMAHA EPPLEY   CLOUDY    77  53  43 W6        29.91R
6HR MIN TEMP:  72; 6HR MAX TEMP:  78;

$$




USA.gov is the U.S. government's official web portal to all federal, state and local government web resources and services.